Weather in Kvasnikovka

Russia / Saratov Oblast     51°22′33″N   46°01′49″E
temp.,
°C
wind,
m/s
gust,
m/s
humid.,
%
clouds,
%
prec.,
mm/h
press.,
hPa
HPBL,
m
23 april, fri
fri2301:00+9e227419 0.0 102310
04:00+8ne11845 0.0 102310
07:00+8e228785 0.0 102324
10:00+9e2282100 0.0 1023120
13:00+10e3375100 0.0 1022216
16:00+12e3368100 0.3 1020355
19:00+11e3375100 0.5 1019111
22:00+10e1280100 0.8 101820
24 april, sat
sat2401:00+8se11845 0.0 101610
04:00+8nnw11855 0.0 101510
07:00+8se128664 0.0 101418
10:00+9s4582100 0.0 1013167
13:00+11ssw576997 0.1 1012361
16:00+12sw7106099 0.2 1010551
19:00+9wsw71186100 1.0 1011347
22:00+7w610797 1.5 1012331
25 april, sun
sun2501:00+7w5975100 0.0 1012309
04:00+6wsw713775 0.0 1014404
07:00+5wsw813745 0.0 1015929
10:00+6wsw911625 0.0 10171140
13:00+9w8104932 0.0 1017701
16:00+10w794399 0.0 1018741
19:00+9wsw57515 0.0 1019307
22:00+7wsw34615 0.0 102049
26 april, mon
mon2601:00+6sw2363100 0.0 102028
04:00+6sw226690 0.0 102026
07:00+6s2264100 0.0 101941
10:00+8sse2359100 0.0 1018155
13:00+9s1157100 0.0 1016388
16:00+9nw1252100 0.0 1014411
19:00+9nnw2255100 0.0 1012146
22:00+9ne1161100 0.0 101127
27 april, tue
tue2701:00+8w226098 0.0 101012
04:00+6w357374 0.0 101076
07:00+6w487728 0.0 1010212
10:00+8wsw797669 0.0 1010378
13:00+9w79608 0.1 1011542
16:00+10w91246100 0.1 1010727
19:00+9w71050100 0.0 1011510
22:00+7w3462100 0.0 1013131